TimePDT,TemperatureF,Dew PointF,Humidity,Sea Level PressureIn,VisibilityMPH,Wind Direction,Wind SpeedMPH,Gust SpeedMPH,PrecipitationIn,Events,Conditions,WindDirDegrees,DateUTC
12:15 AM,60.8,57.2,88,30.02,10.0,South,3.5,-,N/A,,Partly Cloudy,190,2013-09-05 07:15:00
12:35 AM,57.2,57.2,100,30.03,10.0,Calm,Calm,-,N/A,,Clear,0,2013-09-05 07:35:00
12:55 AM,57.2,55.4,94,30.03,10.0,Calm,Calm,-,N/A,,Partly Cloudy,0,2013-09-05 07:55:00
1:15 AM,57.2,57.2,100,30.03,10.0,Calm,Calm,-,N/A,,Clear,0,2013-09-05 08:15:00
1:35 AM,55.4,55.4,100,30.02,8.0,Calm,Calm,-,N/A,,Clear,0,2013-09-05 08:35:00
1:55 AM,55.4,55.4,100,30.02,9.0,Calm,Calm,-,N/A,,Clear,0,2013-09-05 08:55:00
2:15 AM,55.4,55.4,100,30.02,10.0,Calm,Calm,-,N/A,,Clear,0,2013-09-05 09:15:00
2:35 AM,57.2,57.2,100,30.02,10.0,Calm,Calm,-,N/A,,Clear,0,2013-09-05 09:35:00
2:55 AM,55.4,55.4,100,30.01,10.0,Calm,Calm,-,N/A,,Clear,0,2013-09-05 09:55:00
3:15 AM,55.4,55.4,100,30.00,10.0,Calm,Calm,-,N/A,,Clear,0,2013-09-05 10:15:00
3:35 AM,55.4,55.4,100,30.00,10.0,Calm,Calm,-,N/A,,Clear,0,2013-09-05 10:35:00
3:55 AM,55.4,55.4,100,30.01,10.0,Calm,Calm,-,N/A,,Clear,0,2013-09-05 10:55:00
4:15 AM,55.4,55.4,100,30.01,8.0,Calm,Calm,-,N/A,,Clear,0,2013-09-05 11:15:00
4:35 AM,53.6,53.6,100,30.01,10.0,Calm,Calm,-,N/A,,Clear,0,2013-09-05 11:35:00
4:55 AM,55.4,55.4,100,30.00,9.0,Calm,Calm,-,N/A,,Clear,0,2013-09-05 11:55:00
5:15 AM,55.4,55.4,100,30.00,10.0,Calm,Calm,-,N/A,,Clear,0,2013-09-05 12:15:00
5:35 AM,55.4,55.4,100,30.00,10.0,Calm,Calm,-,N/A,,Clear,0,2013-09-05 12:35:00
5:55 AM,55.4,55.4,100,30.01,9.0,Calm,Calm,-,N/A,,Clear,0,2013-09-05 12:55:00
6:15 AM,55.4,55.4,100,30.01,8.0,Calm,Calm,-,N/A,,Clear,0,2013-09-05 13:15:00
6:35 AM,55.4,55.4,100,30.01,9.0,Calm,Calm,-,N/A,,Clear,0,2013-09-05 13:35:00
6:55 AM,55.4,55.4,100,30.01,8.0,Calm,Calm,-,N/A,,Clear,0,2013-09-05 13:55:00
7:15 AM,55.4,55.4,100,30.03,9.0,Calm,Calm,-,N/A,,Clear,0,2013-09-05 14:15:00
7:35 AM,57.2,57.2,100,30.03,9.0,Calm,Calm,-,N/A,,Clear,0,2013-09-05 14:35:00
7:55 AM,57.2,57.2,100,30.04,10.0,SSW,4.6,-,N/A,Rain,Light Rain,200,2013-09-05 14:55:00
8:15 AM,59.0,59.0,100,30.03,9.0,Calm,Calm,-,N/A,,Clear,0,2013-09-05 15:15:00
8:35 AM,59.0,59.0,100,30.03,10.0,Calm,Calm,-,N/A,,Clear,0,2013-09-05 15:35:00
8:55 AM,62.6,59.0,88,30.03,10.0,Calm,Calm,-,N/A,,Clear,0,2013-09-05 15:55:00
9:15 AM,62.6,59.0,88,30.03,10.0,Calm,Calm,-,N/A,,Clear,0,2013-09-05 16:15:00
9:35 AM,62.6,59.0,88,30.04,10.0,Calm,Calm,-,N/A,,Clear,0,2013-09-05 16:35:00
9:55 AM,62.6,59.0,88,30.03,10.0,Calm,Calm,-,N/A,,Partly Cloudy,0,2013-09-05 16:55:00
10:15 AM,62.6,59.0,88,30.03,10.0,Calm,Calm,-,N/A,,Partly Cloudy,0,2013-09-05 17:15:00
10:35 AM,62.6,59.0,88,30.04,10.0,Calm,Calm,-,N/A,,Clear,0,2013-09-05 17:35:00
10:55 AM,62.6,59.0,88,30.04,10.0,Calm,Calm,-,N/A,Rain,Light Rain,0,2013-09-05 17:55:00
11:15 AM,62.6,59.0,88,30.04,9.0,Calm,Calm,-,N/A,Rain,Light Rain,0,2013-09-05 18:15:00
11:35 AM,62.6,59.0,88,30.03,7.0,Calm,Calm,-,N/A,Rain,Light Rain,0,2013-09-05 18:35:00
11:55 AM,62.6,59.0,88,30.04,10.0,Calm,Calm,-,N/A,Rain,Light Rain,0,2013-09-05 18:55:00
12:15 PM,60.8,59.0,94,30.03,10.0,North,4.6,-,N/A,,Overcast,360,2013-09-05 19:15:00
12:35 PM,60.8,59.0,94,30.02,10.0,NNW,3.5,-,N/A,,Overcast,330,2013-09-05 19:35:00
12:55 PM,62.6,59.0,88,30.02,10.0,North,4.6,-,N/A,,Scattered Clouds,350,2013-09-05 19:55:00
1:15 PM,62.6,59.0,88,30.02,10.0,North,4.6,-,N/A,,Partly Cloudy,360,2013-09-05 20:15:00
1:35 PM,60.8,59.0,94,30.01,10.0,North,5.8,-,N/A,Rain,Light Rain,10,2013-09-05 20:35:00
1:55 PM,60.8,59.0,94,30.00,8.0,NNE,4.6,-,N/A,Rain,Light Rain,20,2013-09-05 20:55:00
2:15 PM,60.8,59.0,94,30.00,2.5,Calm,Calm,-,0.02,Rain,Heavy Rain,0,2013-09-05 21:15:00
2:35 PM,62.6,60.8,94,30.00,9.0,Calm,Calm,-,0.02,Rain,Light Rain,0,2013-09-05 21:35:00
2:55 PM,62.6,60.8,94,30.01,10.0,NW,3.5,-,0.02,,Partly Cloudy,310,2013-09-05 21:55:00
3:15 PM,62.6,59.0,88,29.99,10.0,North,5.8,-,N/A,,Partly Cloudy,350,2013-09-05 22:15:00
3:35 PM,64.4,59.0,83,29.99,10.0,WNW,4.6,-,N/A,,Scattered Clouds,290,2013-09-05 22:35:00
3:55 PM,64.4,59.0,83,29.97,10.0,Calm,Calm,-,N/A,,Partly Cloudy,0,2013-09-05 22:55:00
4:15 PM,64.4,59.0,83,29.97,10.0,Calm,Calm,-,N/A,,Partly Cloudy,0,2013-09-05 23:15:00
4:35 PM,64.4,59.0,83,29.97,10.0,North,3.5,-,N/A,,Clear,360,2013-09-05 23:35:00
4:55 PM,64.4,59.0,83,29.97,10.0,North,3.5,-,N/A,,Clear,360,2013-09-05 23:55:00
5:15 PM,64.4,59.0,83,29.96,10.0,Calm,Calm,-,N/A,,Clear,0,2013-09-06 00:15:00
5:35 PM,64.4,59.0,83,29.95,10.0,Calm,Calm,-,N/A,Rain,Light Rain,0,2013-09-06 00:35:00
5:55 PM,64.4,59.0,83,29.94,10.0,Calm,Calm,-,N/A,,Clear,0,2013-09-06 00:55:00
6:15 PM,64.4,59.0,83,29.94,10.0,Calm,Calm,-,N/A,,Clear,0,2013-09-06 01:15:00
6:35 PM,64.4,59.0,83,29.94,9.0,Calm,Calm,-,N/A,,Clear,0,2013-09-06 01:35:00
6:55 PM,64.4,59.0,83,29.94,10.0,Calm,Calm,-,N/A,,Clear,0,2013-09-06 01:55:00
7:15 PM,64.4,57.2,77,29.92,10.0,Calm,Calm,-,N/A,,Clear,0,2013-09-06 02:15:00
7:35 PM,64.4,59.0,83,29.91,10.0,Calm,Calm,-,N/A,,Clear,0,2013-09-06 02:35:00
7:55 PM,62.6,59.0,88,29.91,10.0,Calm,Calm,-,N/A,,Clear,0,2013-09-06 02:55:00
8:15 PM,64.4,57.2,77,29.92,10.0,Calm,Calm,-,N/A,,Clear,0,2013-09-06 03:15:00
8:35 PM,62.6,59.0,88,29.92,10.0,Calm,Calm,-,N/A,,Partly Cloudy,0,2013-09-06 03:35:00
8:55 PM,62.6,59.0,88,29.92,10.0,Calm,Calm,-,N/A,,Scattered Clouds,0,2013-09-06 03:55:00
9:15 PM,62.6,59.0,88,29.92,10.0,Calm,Calm,-,N/A,,Partly Cloudy,0,2013-09-06 04:15:00
9:35 PM,62.6,59.0,88,29.92,10.0,Calm,Calm,-,N/A,,Clear,0,2013-09-06 04:35:00
9:55 PM,62.6,59.0,88,29.91,10.0,SSW,3.5,-,N/A,,Clear,200,2013-09-06 04:55:00
10:15 PM,62.6,59.0,88,29.92,10.0,Calm,Calm,-,N/A,,Clear,0,2013-09-06 05:15:00
10:35 PM,62.6,57.2,82,29.92,10.0,Calm,Calm,-,N/A,,Clear,0,2013-09-06 05:35:00
10:55 PM,62.6,59.0,88,29.91,10.0,Calm,Calm,-,N/A,,Clear,0,2013-09-06 05:55:00
11:15 PM,62.6,59.0,88,29.91,10.0,Calm,Calm,-,N/A,,Clear,0,2013-09-06 06:15:00
11:35 PM,62.6,59.0,88,29.91,10.0,Calm,Calm,-,N/A,,Clear,0,2013-09-06 06:35:00
11:55 PM,60.8,59.0,94,29.91,10.0,Calm,Calm,-,N/A,,Clear,0,2013-09-06 06:55:00